Weather History for KRKR - September, 2013

Change the Weather History Date:

Friday, September 13, 2013

  Actual Average (KFSM) Record (KFSM)
Temperature  
Mean Temperature 80 °F 75 °F  
Max Temperature 89 °F 86 °F 101 °F (1893)
Min Temperature 71 °F 64 °F 42 °F (1902)
Degree Days  
Heating Degree Days 0 0  
Month to date heating degree days 0  
Since 1 July heating degree days 0  
Cooling Degree Days 15 10  
Month to date cooling degree days 159  
Year to date cooling degree days 1854  
Growing Degree Days 30 (Base 50)    
Moisture  
Dew Point 68 °F    
Average Humidity 75    
Maximum Humidity 100    
Minimum Humidity 46    
Precipitation  
Precipitation 0.00 in 0.14 in 1.95 in (2008)
Month to date precipitation 1.66  
Year to date precipitation 31.02  
Sea Level Pressure  
Sea Level Pressure 30.00 in    
Wind  
Wind Speed 1 mph (ENE)    
Max Wind Speed 8 mph    
Max Gust Speed -    
Visibility 8 miles    
Events      
T = Trace of Precipitation, MM = Missing Value Source: NWS Daily Summary

Daily Weather History Graph

Daily Weather History Graph

Search for Another Location

Airport or City:

Trip Planner

Search our weather history database for the weather conditions in past years. The results will help you decide how hot, cold, wet, or windy it might be!

Date:

Astronomy

Sep. 13, 2013 Rise Set
Actual Time 7:00 AM CDT 7:27 PM CDT
Civil Twilight 6:34 AM CDT 7:53 PM CDT
Nautical Twilight 6:04 AM CDT 8:23 PM CDT
Astronomical Twilight 5:34 AM CDT 8:53 PM CDT
Moon 3:08 PM CDT (9/13) 12:40 AM CDT (9/13)
Length of Visible Light 13h 18m
Length of Day
12h 27m
First Quarter, 61% of the Moon is Illuminated
Sep 13
First Quarter
Sep 19
Full
Sep 26
Last Quarter
Oct 4
New
Oct 11
First Quarter

Hourly Weather History & Observations

Time (CDT) Temp. Heat Index Dew Point Humidity Pressure Visibility Wind Dir Wind Speed Gust Speed Precip Events Conditions
12:15 AM 73.4 °F - 71.6 °F 94% 30.01 in 7.0 mi Calm Calm - N/A   Unknown
12:35 AM 71.6 °F - 71.6 °F 100% 30.01 in 7.0 mi Calm Calm - N/A   Unknown
12:55 AM 71.6 °F - 71.6 °F 100% 30.01 in 7.0 mi Calm Calm - N/A   Unknown
1:15 AM 71.6 °F - 71.6 °F 100% 30.01 in 7.0 mi Calm Calm - N/A   Unknown
1:35 AM 71.6 °F - 71.6 °F 100% 30.01 in 5.0 mi Calm Calm - N/A   Mist
1:55 AM 71.6 °F - 71.6 °F 100% 30.01 in 5.0 mi Calm Calm - N/A   Mist
2:15 AM 71.6 °F - 71.6 °F 100% 30.01 in 5.0 mi Calm Calm - N/A   Mist
2:35 AM 71.6 °F - 71.6 °F 100% 30.01 in 4.0 mi Calm Calm - N/A   Mist
2:55 AM 71.6 °F - 71.6 °F 100% 30.01 in 7.0 mi Calm Calm - N/A   Unknown
3:15 AM 71.6 °F - 71.6 °F 100% 30.00 in 5.0 mi Calm Calm - N/A   Mist
3:35 AM 71.6 °F - 71.6 °F 100% 29.99 in 5.0 mi Calm Calm - N/A   Mist
3:55 AM 71.6 °F - 71.6 °F 100% 30.00 in 5.0 mi Calm Calm - N/A   Mist
4:15 AM 71.6 °F - 71.6 °F 100% 30.00 in 5.0 mi Calm Calm - N/A   Mist
4:35 AM 71.6 °F - 71.6 °F 100% 30.00 in 4.0 mi Calm Calm - N/A   Mist
4:55 AM 71.6 °F - 71.6 °F 100% 30.00 in 5.0 mi Calm Calm - N/A   Mist
5:15 AM 71.6 °F - 71.6 °F 100% 30.00 in 5.0 mi Calm Calm - N/A   Mist
5:35 AM 71.6 °F - 71.6 °F 100% 30.01 in 5.0 mi Calm Calm - N/A   Mist
5:55 AM 71.6 °F - 71.6 °F 100% 30.01 in 4.0 mi Calm Calm - N/A   Mist
6:15 AM 71.6 °F - 71.6 °F 100% 30.01 in 5.0 mi Calm Calm - N/A   Mist
6:35 AM 71.6 °F - 71.6 °F 100% 30.01 in 7.0 mi Calm Calm - N/A   Unknown
6:55 AM 71.6 °F - 71.6 °F 100% 30.01 in 7.0 mi Calm Calm - N/A   Unknown
7:15 AM 71.6 °F - 71.6 °F 100% 30.01 in 5.0 mi Calm Calm - N/A   Mist
7:35 AM 71.6 °F - 71.6 °F 100% 30.02 in 4.0 mi Calm Calm - N/A   Mist
7:55 AM 71.6 °F - 71.6 °F 100% 30.03 in 5.0 mi Calm Calm - N/A   Mist
8:15 AM 75.2 °F - 73.4 °F 94% 30.03 in 7.0 mi Calm Calm - N/A   Unknown
8:35 AM 77.0 °F - 73.4 °F 89% 30.03 in 7.0 mi Calm Calm - N/A   Unknown
8:55 AM 77.0 °F - 73.4 °F 89% 30.04 in 10.0 mi NE 3.5 mph - N/A   Unknown
9:15 AM 77.0 °F - 71.6 °F 83% 30.04 in 10.0 mi NE 4.6 mph - N/A   Unknown
9:35 AM 77.0 °F - 71.6 °F 83% 30.04 in 10.0 mi NNE 5.8 mph - N/A   Unknown
9:55 AM 78.8 °F - 71.6 °F 78% 30.05 in 10.0 mi NNE 3.5 mph - N/A   Unknown
10:15 AM 78.8 °F - 71.6 °F 78% 30.06 in 10.0 mi Calm Calm - N/A   Unknown
10:35 AM 78.8 °F - 71.6 °F 78% 30.06 in 10.0 mi ESE 5.8 mph - N/A   Unknown
10:55 AM 78.8 °F - 69.8 °F 74% 30.06 in 10.0 mi East 5.8 mph - N/A   Unknown
11:15 AM 80.6 °F 84.6 °F 71.6 °F 74% 30.06 in 10.0 mi ENE 4.6 mph - N/A   Unknown
11:35 AM 80.6 °F 83.9 °F 69.8 °F 70% 30.05 in 10.0 mi ESE 6.9 mph - N/A   Unknown
11:55 AM 80.6 °F 83.2 °F 68.0 °F 65% 30.05 in 10.0 mi East 6.9 mph - N/A   Unknown
12:15 PM 82.4 °F 84.6 °F 66.2 °F 58% 30.04 in 10.0 mi East 6.9 mph - N/A   Unknown
12:35 PM 82.4 °F 84.6 °F 66.2 °F 58% 30.04 in 10.0 mi East 5.8 mph - N/A   Unknown
12:55 PM 82.4 °F 83.9 °F 64.4 °F 54% 30.03 in 10.0 mi East 8.1 mph - N/A   Unknown
1:15 PM 80.6 °F 82.3 °F 64.4 °F 58% 30.03 in 10.0 mi East 3.5 mph - N/A   Unknown
1:35 PM 80.6 °F 82.3 °F 64.4 °F 58% 30.02 in 10.0 mi ENE 3.5 mph - N/A   Unknown
1:55 PM 80.6 °F 82.3 °F 64.4 °F 58% 30.01 in 10.0 mi ESE 4.6 mph - N/A   Unknown
2:15 PM 80.6 °F 81.8 °F 62.6 °F 54% 30.01 in 10.0 mi SE 3.5 mph - N/A   Unknown
2:35 PM 82.4 °F 83.9 °F 64.4 °F 54% 29.99 in 10.0 mi Calm Calm - N/A   Unknown
2:55 PM 84.2 °F 85.6 °F 64.4 °F 51% 29.99 in 10.0 mi Calm Calm - N/A   Unknown
3:15 PM 84.2 °F 85.6 °F 64.4 °F 51% 29.98 in 10.0 mi Calm Calm - N/A   Unknown
3:35 PM 84.2 °F 85.6 °F 64.4 °F 51% 29.96 in 10.0 mi Calm Calm - N/A   Unknown
3:55 PM 86.0 °F 87.3 °F 64.4 °F 48% 29.95 in 10.0 mi Calm Calm - N/A   Unknown
4:15 PM 86.0 °F 87.3 °F 64.4 °F 48% 29.95 in 10.0 mi Calm Calm - N/A   Unknown
4:35 PM 86.0 °F 87.3 °F 64.4 °F 48% 29.95 in 10.0 mi Calm Calm - N/A   Unknown
4:55 PM 86.0 °F 87.3 °F 64.4 °F 48% 29.94 in 10.0 mi Calm Calm - N/A   Unknown
5:15 PM 87.8 °F 89.4 °F 64.4 °F 46% 29.94 in 10.0 mi Calm Calm - N/A   Unknown
5:35 PM 89.6 °F 93.4 °F 68.0 °F 49% 29.93 in 10.0 mi NNE 3.5 mph - N/A   Unknown
5:55 PM 87.8 °F 89.4 °F 64.4 °F 46% 29.93 in 10.0 mi NNE 5.8 mph - N/A   Unknown
6:15 PM 86.0 °F 87.3 °F 64.4 °F 48% 29.93 in 10.0 mi NNE 3.5 mph - N/A   Unknown
6:35 PM 86.0 °F 87.3 °F 64.4 °F 48% 29.93 in 10.0 mi NNE 3.5 mph - N/A   Unknown
6:55 PM 84.2 °F 85.6 °F 64.4 °F 51% 29.93 in 10.0 mi NNE 3.5 mph - N/A   Unknown
7:15 PM 82.4 °F 83.9 °F 64.4 °F 54% 29.93 in 10.0 mi Calm Calm - N/A   Unknown
7:35 PM 80.6 °F 82.7 °F 66.2 °F 61% 29.93 in 10.0 mi Calm Calm - N/A   Unknown
7:55 PM 78.8 °F - 68.0 °F 69% 29.94 in 10.0 mi Calm Calm - N/A   Unknown
8:15 PM 77.0 °F - 68.0 °F 74% 29.95 in 10.0 mi Calm Calm - N/A   Unknown
8:35 PM 77.0 °F - 68.0 °F 74% 29.95 in 10.0 mi Calm Calm - N/A   Unknown
8:55 PM 77.0 °F - 69.8 °F 78% 29.97 in 10.0 mi Calm Calm - N/A   Unknown
9:15 PM 77.0 °F - 69.8 °F 78% 29.97 in 10.0 mi Calm Calm - N/A   Unknown
9:35 PM 75.2 °F - 68.0 °F 78% 29.98 in 10.0 mi NNE 3.5 mph - N/A   Unknown
9:55 PM 77.0 °F - 68.0 °F 74% 29.98 in 10.0 mi Calm Calm - N/A   Unknown
10:15 PM 77.0 °F - 64.4 °F 65% 29.99 in 10.0 mi NE 3.5 mph - N/A   Unknown
10:35 PM 77.0 °F - 60.8 °F 57% 29.99 in 10.0 mi ENE 6.9 mph - N/A   Unknown
10:55 PM 77.0 °F - 62.6 °F 61% 30.00 in 10.0 mi North 6.9 mph - N/A   Unknown
11:15 PM 77.0 °F - 59.0 °F 54% 30.01 in 10.0 mi NNE 3.5 mph - N/A   Unknown
11:35 PM 77.0 °F - 59.0 °F 54% 30.01 in 10.0 mi Calm Calm - N/A   Unknown
11:55 PM 71.6 °F - 59.0 °F 64% 30.01 in 10.0 mi Calm Calm - N/A   Unknown